Flag for China Weather past 2 weeks in Suzhou, Jiangsu, China

Now
70 °F

Passing clouds.


Feels Like: 70 °F
Forecast: 66 / 82 °F
Wind: 1 mph from North

Location: Shanghai Hongqiao Airport

Current Time: May 31, 2015 at 3:02:31 AM

Latest Report: May 31, 2015 at 2:30 AM


Visibility: N/A

Pressure: 29.77 "Hg

Humidity: 83%

Dew point: 64 °F

Location of SuzhouLocation

Historic Weather in Suzhou — Graph

°F

Suzhou temperature yesterday

Maximum temperature yesterday: 75 °F (at 11:30 AM)
Minimum temperature yesterday: 72 °F (at 4:30 AM)
Average temperature yesterday: 73 °F

Past Weeks' High & Low Weather Summary

 TemperatureHumidityPressure
High84 °F (May 19, 1:30 PM)100% (May 16, 1:00 AM)30.07 "Hg (May 16, 1:00 AM)
Low59 °F (May 21, 2:30 AM)24% (May 17, 1:00 PM)29.59 "Hg (May 18, 3:30 AM)
Average71 °F71%29.79 "Hg
* Reported May 16 1:00 AM — May 31 1:30 AM, Suzhou, Weather by CustomWeather, © 2015

Note: Actual official high and low records may vary slightly from our data, if they occured in-between our weather recording intervals... More about our weather records

Advertising

Suzhou weather history for previous 24 hours

 ConditionsComfort  
Time TempWeatherWind HumidityBarometerVisibility
1:30 AM
Sun, May 31
70 °FPassing clouds.1 mph83%29.77 "HgN/A
1:00 AM70 °FPassing clouds.1 mph83%29.80 "HgN/A
12:30 AM72 °FPassing clouds.3 mph78%29.80 "HgN/A
12:00 AM72 °FPassing clouds.1 mph78%29.80 "HgN/A
11:30 PM
Sat, May 30
72 °FPassing clouds.1 mph78%29.80 "HgN/A
11:00 PM72 °FPassing clouds.3 mph78%29.80 "HgN/A
10:30 PM72 °FPassing clouds.3 mph78%29.80 "HgN/A
10:00 PM72 °FPassing clouds.3 mph78%29.80 "HgN/A
9:30 PM72 °FPassing clouds.3 mph78%29.80 "HgN/A
9:00 PM72 °FClear.3 mph78%29.77 "Hg10 mi
8:30 PM72 °FPassing clouds.3 mph78%29.77 "HgN/A
8:00 PM72 °FPassing clouds.6 mph78%29.74 "HgN/A
7:30 PM72 °FPassing clouds.3 mph78%29.74 "HgN/A
7:00 PM73 °FPassing clouds.8 mph74%29.74 "HgN/A
6:30 PM73 °FPartly sunny.8 mph74%29.74 "HgN/A
6:00 PM73 °FPartly sunny.10 mph74%29.71 "HgN/A
5:30 PM75 °FPartly sunny.10 mph69%29.71 "HgN/A
5:00 PM75 °FPartly sunny.10 mph74%29.71 "HgN/A
4:30 PM75 °FPartly sunny.13 mph74%29.71 "HgN/A
4:00 PM75 °FPartly sunny.8 mph74%29.71 "HgN/A
3:30 PM75 °FPartly sunny.10 mph74%29.71 "HgN/A
3:00 PM75 °FPartly sunny.8 mph74%29.71 "HgN/A
2:30 PM73 °FPartly sunny.10 mph78%29.71 "HgN/A
2:00 PM75 °FPartly sunny.13 mph74%29.71 "HgN/A
1:30 PM75 °FPartly sunny.10 mph74%29.71 "HgN/A
1:00 PM73 °FPartly sunny.15 mph78%29.71 "HgN/A
12:30 PM73 °FPartly sunny.13 mph78%29.71 "HgN/A
12:00 PM73 °FPartly sunny.10 mph83%29.71 "HgN/A
11:30 AM75 °FPartly sunny.10 mph78%29.71 "HgN/A
11:00 AM73 °FPartly sunny.10 mph83%29.71 "HgN/A
10:30 AM73 °FPartly sunny.10 mph83%29.71 "Hg5 mi
10:00 AM73 °FPartly sunny.10 mph83%29.71 "Hg4 mi
9:30 AM72 °FPartly sunny.10 mph88%29.71 "Hg4 mi
9:00 AM72 °FPartly sunny.15 mph83%29.71 "Hg4 mi
8:30 AM72 °FPartly sunny.15 mph88%29.71 "Hg4 mi
8:00 AM72 °FPartly sunny.15 mph83%29.68 "Hg4 mi
7:30 AM72 °FFog.15 mph88%29.68 "Hg3 mi
7:00 AM72 °FFog.15 mph88%29.65 "Hg3 mi
6:30 AM72 °FFog.13 mph88%29.65 "Hg3 mi
6:00 AM72 °FFog.10 mph83%29.65 "Hg3 mi
5:30 AM72 °FFog.13 mph88%29.62 "Hg3 mi
4:30 AM72 °FFog.13 mph88%29.59 "Hg3 mi
4:00 AM73 °FFog.10 mph89%29.59 "Hg3 mi
3:30 AM73 °FFog.8 mph89%29.59 "Hg2 mi
3:00 AM73 °FFog.6 mph89%29.59 "Hg2 mi
Weather by CustomWeather, © 2015

See weather overviewHow to use our weather pages